Location: Cincinnati Observatory Center
(39.1389°N, 84.4225°W)
Time: 06:18:14
(UTC-04:00)

Daily predictions for brighter satellites

Satellite Brightness Start Highest point End
(mag) Time Altitude Azimuth Time Altitude Azimuth Time Altitude Azimuth
Aureole 2 Rocket 2.8 21:21:16 10° S 21:25:06 49° ESE 21:28:37 10° NNE
Cosmos 1331 Rocket 4.0 21:21:17 10° NNW 21:26:31 82° ENE 21:31:41 10° SSE
SeaSat 1 3.8 21:25:24 10° ESE 21:29:25 26° NE 21:33:27 10° N
Cosmos 2237 Rocket 4.3 21:30:56 10° WSW 21:35:55 32° WNW 21:40:57 10° N
USA 186 2.5 21:34:27 10° S 21:37:13 43° W 21:39:50 10° NNW
Cosmos 1302 Rocket 4.2 21:32:15 10° NNW 21:37:27 60° ENE 21:42:37 10° SSE
CZ-2C R/B 0.3 21:36:50 10° SSE 21:39:07 82° E 21:41:26 10° N
DEBRIS 3.1 21:37:20 10° NW 21:43:33 61° NNE 21:45:47 12° ESE
Cosmos 1726 Rocket 4.1 21:40:00 10° NNW 21:44:23 61° W 21:48:43 10° S
Cosmos 2278 Rocket 3.9 21:40:00 10° NW 21:44:54 31° WSW 21:49:47 10° SSW
Cosmos 1461 3.2 21:42:02 10° NNW 21:46:16 53° NE 21:49:44 13° SE
ATLAS 3B R/B 3.8 21:43:19 10° SSE 21:49:23 26° ESE 21:55:23 10° NE
SJ-11-01 4.3 21:45:20 10° SSE 21:49:59 83° ENE 21:54:41 10° N
Tsikada Rocket 4.3 21:45:24 10° SSE 21:51:34 52° E 21:57:43 10° NNE
Cosmos 2369 Rocket 3.7 21:53:13 10° N 21:57:41 23° NE 22:01:39 12° ESE
Cosmos 2058 Rocket 3.8 21:56:32 10° NNW 22:00:47 52° W 22:05:00 10° S
Cosmos 1666 2.8 21:57:59 10° N 22:01:55 80° W 22:05:47 10° S
APEX 3.9 21:57:56 10° NNW 22:02:08 75° WSW 22:07:16 12° SSE
Cosmos 2285 Rocket 4.4 21:56:51 10° NNW 22:03:06 64° WSW 22:09:21 10° S
ERS-1 Rocket 3.3 21:58:14 10° S 22:03:13 66° WSW 22:08:14 10° NNW
Cosmos 1602 Rocket 3.5 21:58:48 10° S 22:03:15 76° E 22:07:44 10° N
Abrixas rocket 2.7 22:00:47 10° WNW 22:04:07 51° SW 22:06:15 20° SSE
SL-16 R/B 3.6 21:59:05 10° SW 22:04:23 41° WNW 22:09:44 10° N
Atlas Centaur 2 3.4 21:58:36 10° SW 22:05:25 40° SSE 22:12:42 11° ESE
Meteor 1-15 Rocket 4.4 22:01:11 10° NNW 22:06:47 76° W 22:12:25 10° S
USA 234 4.0 22:01:10 10° ESE 22:07:16 47° NNE 22:13:29 10° NW
Envisat 3.0 22:05:31 13° SSE 22:10:03 74° ENE 22:15:08 10° N
MetOp-B 4.5 22:06:59 16° SE 22:11:01 50° ENE 22:16:11 10° N
Cosmos 1464 Rocket 4.4 22:05:26 10° NNW 22:11:29 65° W 22:17:34 10° S
ISS -3.5 22:11:50 10° SW 22:15:03 69° SE 22:18:19 10° NE
Cosmos 1812 Rocket 3.6 22:10:48 10° N 22:15:10 62° E 22:18:11 19° SSE
PSLV R/B 3.3 22:16:08 10° WSW 22:19:40 87° NNW 22:22:59 12° ENE
Cosmos 1939 Rocket 3.3 22:16:38 12° S 22:20:25 64° W 22:24:33 10° NNW
GRACE-1 4.1 22:19:52 10° N 22:22:44 70° W 22:24:31 20° SSW
GRACE-2 4.1 22:20:19 10° N 22:23:11 70° W 22:24:55 21° SSW
Cosmos 1816 Rocket 4.5 22:19:36 10° S 22:25:57 76° E 22:32:17 10° N
H-2A R/B 3.3 22:22:52 10° SSW 22:26:49 39° W 22:30:54 10° NNW
SPOT 5 2.6 22:24:58 19° S 22:28:10 83° WSW 22:32:31 10° NNW
COSMOS 2455 2.8 22:24:07 10° SSW 22:30:06 86° ESE 22:36:10 10° NNE
Cosmos 2034 Rocket 4.5 22:24:30 10° NNW 22:30:46 62° W 22:36:58 10° S
Cosmos 1515 3.7 22:28:51 23° S 22:31:07 66° E 22:34:58 10° NNE
Cosmos 1634 Rocket 4.3 22:25:10 10° N 22:31:09 49° E 22:34:39 24° SE
USA 245 4.4 22:28:23 22° SE 22:32:14 59° ENE 22:37:22 10° N
Cosmos 1603 4.2 22:27:48 10° SW 22:33:21 61° WNW 22:38:55 10° NNE
CZ-4 SHROUD 3.9 22:31:44 22° SSW 22:33:29 51° W 22:36:35 10° NNW
Cosmos 1066 Rocket 4.4 22:30:02 20° SSE 22:33:48 52° E 22:39:25 10° NNE
USA 81 4.3 22:29:48 10° N 22:34:59 54° E 22:37:42 27° SSE
BREEZE-M DEB (TANK) 3.3 22:33:18 10° WNW 22:35:11 23° SW 22:35:23 23° SW
YAOGAN 6 2.6 22:39:45 37° SSE 22:41:05 72° ENE 22:44:50 10° N
Terra 3.2 22:43:54 21° E 22:45:20 25° ENE 22:49:10 10° NNE
Meteor 2-12 Rocket 4.4 22:39:17 10° N 22:45:23 85° W 22:49:33 21° S
Cosmos 1992 Rocket 3.9 22:42:50 10° NNW 22:48:05 79° ENE 22:50:30 33° SSE
Cosmos 1346 Rocket 2.9 22:48:51 44° SE 22:49:35 51° E 22:53:23 10° NNE
Cosmos 1953 Rocket 3.6 22:52:36 39° SSE 22:54:03 62° E 22:58:26 10° NNE
Cosmos 2279 Rocket 4.5 22:48:33 10° N 22:54:30 44° ENE 22:56:57 31° SE
Cosmos 1943 3.1 22:51:06 10° SSW 22:56:46 86° ESE 23:02:30 10° NNE
H-2A R/B 2.7 22:57:40 30° ESE 22:59:06 37° ENE 23:03:43 10° N
Cosmos 2346 Rocket 4.4 22:56:16 19° S 23:00:51 89° W 23:07:02 10° N
Cosmos 1943 Rocket 3.4 22:57:57 10° N 23:02:47 30° ENE 23:04:49 24° E
Cosmos 1842 4.3 23:04:01 31° ENE 23:04:01 31° ENE 23:07:06 10° NNE
Lacrosse 4 Rocket 1.2 23:03:03 52° S 23:03:51 68° ESE 23:07:55 10° NNE
Geosat 3.9 22:59:28 10° NNE 23:04:29 62° ESE 23:06:36 34° S
SAR-Lupe-2 4.4 23:05:25 36° ENE 23:05:25 36° ENE 23:08:40 10° N
Meteor 1-21 4.4 23:03:33 36° SSE 23:05:45 58° E 23:11:27 10° NNE
SeaSat 1 3.3 23:04:19 25° SSW 23:06:43 42° WSW 23:11:25 10° NW
Cosmos 1190 Rocket 4.0 23:03:10 20° SSW 23:06:58 88° WNW 23:12:19 10° NNE
SPOT 1/Viking Rocket 3.7 23:05:20 31° S 23:07:48 68° WSW 23:12:57 10° NNW
Cosmos 1900 4.3 23:07:02 32° S 23:09:23 66° ESE 23:14:29 10° NE
Cosmos-2242 3.9 23:07:22 10° NNE 23:11:25 34° ENE 23:11:38 34° E
Cosmos 676 Rocket 3.9 23:21:47 43° S 23:23:36 78° ESE 23:28:56 10° NNE
DELTA 2 DEB (DPAF) 4.2 23:22:58 55° S 23:23:54 76° WSW 23:28:25 10° NNW
DMSP B5D2-2 4.1 23:20:10 10° NNE 23:25:23 58° E 23:26:13 51° SE
Cosmos 1766 3.1 23:22:25 10° N 23:26:27 83° E 23:26:30 83° ESE
Cosmos 1758 Rocket 3.8 23:27:02 45° SW 23:28:12 66° W 23:32:33 10° N
Cosmos 1140 Rocket 4.0 23:28:55 40° E 23:28:55 40° E 23:33:36 10° NNE
CARTOSAT-1 3.4 23:31:25 73° ESE 23:31:40 77° ENE 23:36:01 10° N
ARGOS 3.8 23:33:16 32° SSW 23:35:21 48° W 23:40:36 10° NNW
ATLAS 3B R/B 3.2 23:31:56 10° SW 23:39:36 68° NW 23:47:08 10° NNE
Cosmos 2369 Rocket 2.7 23:36:32 10° NNW 23:42:00 50° WSW 23:43:27 40° SSW
CZ-4C R/B 4.4 23:46:15 38° WSW 23:46:40 39° W 23:50:33 10° NNW
USA 234 3.5 23:48:30 43° S 23:50:10 53° SW 23:56:34 10° NW
ISS -0.4 23:49:23 10° WNW 23:51:48 19° NNW 23:54:12 10° NNE
SL-27 R/B 4.1 23:54:51 30° N 23:54:51 30° N 23:56:41 10° NNE
